Location: Couloutre
(47.4081°N, 3.2259°E)
Time: 09:15:15
(UTC+00:00)

CZ-2C R/B - Pass Details

Date: 27 February 2020
Orbit: 784 x 871 km, 98.3° (Epoch: 09 April)

Event Time Altitude Azimuth Distance (km) Brightness Sun altitude
Rises 20:34:09 0° 12° (NNE) 3,435 6.0 -31.6°
Reaches altitude 10° 20:36:34 10° 11° (N) 2,483 5.3 -32.0°
Enters shadow 20:38:39 24° 8° (N) 1,692 4.4 -32.3°
